Location: Newark
(48.0000°N, 67.0000°E)
Time: 00:18:38
(UTC+00:00)

A-11 Canister half - Pass Details

Date: 19 February 2020
Orbit: 1517 x 1683 km, 47.2° (Epoch: 01 April)

Event Time Altitude Azimuth Distance (km) Brightness Sun altitude
Rises 15:02:44 0° 267° (W) 4,864 13.1 -21.2°
Reaches altitude 10° 15:05:54 10° 267° (W) 3,857 12.2 -21.7°
Maximum altitude 15:15:45 87° 181° (S) 1,591 9.0 -23.4°
Enters shadow 15:20:03 39° 94° (E) 2,206 9.3 -24.1°
